Aérodrome :
LOGIN :

S'inscrire | Disclaimer

   EN    FR    IT 

 










Légende :    VFR   VFR Marginal   IFR   IFR Intensif   IFR Très Intensif
Visi : 
Plafond : 
>= 8 km
>= 3000ft
5 à 8 km
1000 à 3000 ft
1500m à 5 km
500 à 1000 ft
800 à 1500m
200 à 500 ft
< 800m
< 200 ft
Symboles :   Orages  Brouillard  Fortes neiges  Fortes précipitations  Vent > 20 kt
SIGMETs :   Divers  Orages  Givrage  Turbulence  Onde Orograph.  Cendres Volcan.







- Altitude de l'aérodrome : 741 ft
- Code IATA : PED


LKPD - Pardubice AB

DERNIER METAR :
  • 222000Z 18003KT CAVOK 14/10 Q1014 NOSIG RMK BLU BLU

METARs EXPIRÉS :
  • 221900Z 17003KT CAVOK 15/09 Q1014 NOSIG RMK BLU BLU
  • 221800Z 00000KT CAVOK 20/09 Q1013 NOSIG RMK BLU BLU

TAF TAF LKPD
Valide du 22 à 18h jusqu'au 23 à 18h UTC


221700Z 2218/2318 VRB02KT CAVOK
BECMG 2308/2310 29007KT
BECMG 2310/2313 28012KT BKN040
TEMPO 2312/2318 28012G28KT 6000 SHRA BKN030TCU
PROB40
TEMPO 2314/2318 30018G40KT 3000 TSRA BKN030CB
Pas de NOTAMs connus pour ce terrain.



MET'MAP, la Météo Aéronautique d'un coup d'oeil ! - Copyright ORBIFLY Décembre 2007 - Disclaimer

ORBIFLY MET'MAP TEAM :

Programmation & Développement : Alexandra Zaïnal
Conception & Développement : Baudouin d'Aumeries
Co-Programmation & Développement : Marc-Olivier Méhu
Soutien technique & logistique : Manuel Goepfert

Contact : metmap@orbifly.com




SOURCES & CREDITS :

   NOAA